Date String (YYYY-MM-DD hh:mm:ss) UTC,Instrument flags,Ambient pressure (hPa),Sample flow (lpm),Bypass flow (lpm),Sample temperature (°C),Ambient temperature (°C),ASC tube jacket temperature (°C),LED temperature (°C),Box temperature (°C),Sample RH (%),Span deviation,Mass concentration (μg/m³),Mass concentration (μg/m³),Mass concentration (μg/m³)
DateTimeUTC,F1_M11,P_M11,Q1_M11,Q2_M11,T1_M11,T2_M11,T3_M11,T4_M11,T5_M11,U1_M11,ZSPAN_M11,X0_M11,X2_M11,X1_M11
2022-01-15 16:00:00,,0834.0,4.99,0.00,21.8,21.1,00.0,31.0,23.3,08.9,0000.0,0002.04,0001.42,0001.23
2022-01-15 16:01:00,,0834.0,4.99,0.00,21.8,21.2,00.0,30.9,23.3,09.0,0000.0,0002.03,0001.42,0001.24
2022-01-15 16:02:00,,0834.0,5.01,0.00,21.8,22.0,00.0,31.0,23.6,09.0,0000.0,0002.03,0001.42,0001.24
2022-01-15 16:03:00,,0834.0,5.00,0.00,22.0,23.1,00.0,31.0,24.0,09.1,0000.0,0002.16,0001.46,0001.24
2022-01-15 16:04:00,,0833.9,5.00,0.00,22.2,23.2,00.0,31.0,24.1,08.9,0000.0,0002.19,0001.46,0001.22
2022-01-15 16:05:00,,0833.8,5.00,0.00,22.2,22.8,00.0,31.1,24.1,08.9,0000.0,0002.28,0001.46,0001.22
2022-01-15 16:06:00,,0833.9,5.01,0.00,22.2,22.5,00.0,31.1,23.9,08.9,0000.0,0002.69,0001.48,0001.23
2022-01-15 16:07:00,,0833.9,5.01,0.00,22.1,22.3,00.0,31.1,23.8,08.8,0000.0,0002.74,0001.50,0001.26
2022-01-15 16:08:00,,0833.9,5.00,0.00,22.1,22.1,00.0,31.1,23.8,08.9,0000.0,0002.80,0001.54,0001.27
2022-01-15 16:09:00,,0833.8,4.99,0.00,22.1,21.9,00.0,31.1,23.7,08.8,0000.0,0002.85,0001.57,0001.30
2022-01-15 16:10:00,,0833.7,5.00,0.00,22.0,21.7,00.0,31.1,23.7,08.8,0000.0,0002.88,0001.59,0001.31
2022-01-15 16:11:00,,0833.7,5.00,0.00,22.0,21.6,00.0,31.0,23.6,08.9,0000.0,0002.92,0001.60,0001.31
2022-01-15 16:12:00,,0833.7,5.02,0.00,21.9,21.5,00.0,31.0,23.5,09.2,0000.0,0003.08,0001.62,0001.32
2022-01-15 16:13:00,,0833.7,5.00,0.00,21.9,21.4,00.0,31.0,23.5,09.0,0000.0,0003.37,0001.70,0001.34
2022-01-15 16:14:00,,0833.7,5.00,0.00,21.9,21.3,00.0,31.0,23.5,09.0,0000.0,0003.41,0001.71,0001.36
2022-01-15 16:15:00,,0833.6,4.99,0.00,21.9,21.3,00.0,31.0,23.5,09.0,0000.0,0003.45,0001.74,0001.39
2022-01-15 16:16:00,,0833.6,5.01,0.00,21.8,21.3,00.0,31.0,23.4,09.2,0000.0,0003.39,0001.77,0001.42
2022-01-15 16:17:00,,0833.6,5.01,0.00,21.8,21.2,00.0,31.0,23.4,09.1,0000.0,0003.02,0001.82,0001.45
2022-01-15 16:18:00,,0833.7,4.99,0.00,21.8,21.2,00.0,31.0,23.4,09.1,0000.0,0003.03,0001.84,0001.45
2022-01-15 16:19:00,,0833.7,5.00,0.00,21.8,21.2,00.0,30.9,23.4,09.1,0000.0,0003.15,0001.85,0001.45
2022-01-15 16:20:00,,0833.7,5.01,0.00,21.8,21.2,00.0,30.9,23.3,09.1,0000.0,0003.24,0001.89,0001.46
2022-01-15 16:21:00,,0833.7,5.00,0.00,21.7,21.1,00.0,30.9,23.3,09.2,0000.0,0003.50,0002.03,0001.56
2022-01-15 16:22:00,,0833.6,4.99,0.00,21.7,21.1,00.0,30.9,23.3,09.2,0000.0,0003.60,0002.10,0001.63
2022-01-15 16:23:00,,0833.6,5.00,0.00,21.7,21.1,00.0,30.9,23.3,09.0,0000.0,0003.53,0002.14,0001.67
2022-01-15 16:24:00,,0833.6,5.02,0.00,21.7,21.0,00.0,30.8,23.2,09.2,0000.0,0003.47,0002.11,0001.68
2022-01-15 16:25:00,,0833.6,5.00,0.00,21.6,21.0,00.0,30.8,23.2,09.2,0000.0,0003.53,0002.13,0001.71
2022-01-15 16:26:00,,0833.6,4.99,0.00,21.6,21.0,00.0,30.8,23.2,09.4,0000.0,0003.67,0002.20,0001.73
2022-01-15 16:27:00,,0833.6,5.00,0.00,21.7,21.8,00.0,30.8,23.4,09.5,0000.0,0003.76,0002.24,0001.75
2022-01-15 16:28:00,,0833.6,5.01,0.00,21.9,23.0,00.0,30.8,23.8,09.3,0000.0,0003.60,0002.20,0001.73
2022-01-15 16:29:00,,0833.6,4.98,0.00,22.0,23.2,00.0,30.9,24.0,09.1,0000.0,0003.51,0002.17,0001.75
2022-01-15 16:30:00,,0833.6,4.99,0.00,22.1,22.9,00.0,30.9,24.0,09.2,0000.0,0003.52,0002.22,0001.76
2022-01-15 16:31:00,,0833.7,5.01,0.00,22.1,22.6,00.0,30.9,23.9,09.2,0000.0,0003.67,0002.26,0001.77
2022-01-15 16:32:00,,0833.6,5.01,0.00,22.0,22.3,00.0,30.9,23.8,09.1,0000.0,0003.59,0002.19,0001.70
2022-01-15 16:33:00,,0833.6,5.01,0.00,22.0,22.1,00.0,30.9,23.8,09.1,0000.0,0003.63,0002.17,0001.66
2022-01-15 16:34:00,,0833.6,5.00,0.00,22.0,22.0,00.0,30.9,23.7,09.1,0000.0,0003.65,0002.18,0001.66
2022-01-15 16:35:00,,0833.6,4.99,0.00,22.0,21.8,00.0,31.0,23.6,09.3,0000.0,0003.57,0002.21,0001.66
2022-01-15 16:36:00,,0833.7,5.00,0.00,21.9,21.7,00.0,31.0,23.6,09.2,0000.0,0003.48,0002.21,0001.65
2022-01-15 16:37:00,,0833.6,4.99,0.00,21.9,21.6,00.0,30.9,23.6,09.1,0000.0,0003.43,0002.21,0001.67
2022-01-15 16:38:00,,0833.6,5.01,0.00,21.9,21.5,00.0,31.0,23.6,09.4,0000.0,0003.45,0002.22,0001.68
2022-01-15 16:39:00,,0833.6,5.00,0.00,21.9,21.5,00.0,31.0,23.5,09.2,0000.0,0003.57,0002.28,0001.72
2022-01-15 16:40:00,,0833.6,4.99,0.00,21.9,21.4,00.0,30.9,23.5,09.4,0000.0,0003.64,0002.32,0001.73
2022-01-15 16:41:00,,0833.6,5.00,0.00,21.8,21.3,00.0,30.9,23.4,09.3,0000.0,0003.74,0002.36,0001.76
2022-01-15 16:42:00,,0833.7,5.01,0.00,21.8,21.3,00.0,30.9,23.4,09.2,0000.0,0003.58,0002.32,0001.78
2022-01-15 16:43:00,,0833.6,4.99,0.00,21.7,21.2,00.0,30.9,23.3,09.1,0000.0,0003.51,0002.34,0001.80
2022-01-15 16:44:00,,0833.6,5.01,0.00,21.7,21.1,00.0,30.9,23.3,09.1,0000.0,0003.39,0002.33,0001.81
2022-01-15 16:45:00,,0833.6,4.99,0.00,21.7,21.1,00.0,30.9,23.3,09.4,0000.0,0003.59,0002.33,0001.84
2022-01-15 16:46:00,,0833.6,5.00,0.00,21.7,21.1,00.0,30.8,23.3,09.3,0000.0,0003.58,0002.34,0001.86
2022-01-15 16:47:00,,0833.6,5.01,0.00,21.7,21.1,00.0,30.8,23.2,09.6,0000.0,0003.65,0002.39,0001.89
2022-01-15 16:48:00,,0833.6,5.00,0.00,21.6,21.1,00.0,30.8,23.2,09.6,0000.0,0003.72,0002.43,0001.91
2022-01-15 16:49:00,,0833.6,5.00,0.00,21.6,21.1,00.0,30.8,23.2,09.5,0000.0,0003.88,0002.47,0001.94
2022-01-15 16:50:00,,0833.6,4.99,0.00,21.6,21.0,00.0,30.8,23.2,09.6,0000.0,0003.98,0002.46,0001.95
2022-01-15 16:51:00,,0833.6,5.00,0.00,21.6,21.0,00.0,30.8,23.2,09.5,0000.0,0004.01,0002.48,0001.97
2022-01-15 16:52:00,,0833.6,5.00,0.00,21.6,21.0,00.0,30.7,23.2,09.6,0000.0,0003.89,0002.42,0001.97
2022-01-15 16:53:00,,0833.6,5.00,0.00,21.5,21.0,00.0,30.7,23.2,09.5,0000.0,0003.87,0002.41,0001.98
2022-01-15 16:54:00,,0833.6,4.99,0.00,21.5,21.1,00.0,30.7,23.2,09.5,0000.0,0003.85,0002.39,0001.99
2022-01-15 16:55:00,,0833.6,5.01,0.00,21.7,22.1,00.0,30.7,23.5,09.6,0000.0,0003.90,0002.44,0002.01
2022-01-15 16:56:00,,0833.6,5.01,0.00,21.9,23.1,00.0,30.8,23.9,09.3,0000.0,0003.84,0002.50,0002.03
2022-01-15 16:57:00,,0833.6,4.98,0.00,22.0,23.0,00.0,30.8,24.0,09.0,0000.0,0003.94,0002.50,0002.04
2022-01-15 16:58:00,,0833.6,5.01,0.00,22.0,22.7,00.0,30.9,23.9,09.1,0000.0,0004.06,0002.51,0002.04
2022-01-15 16:59:00,,0833.6,5.01,0.00,22.0,22.4,00.0,30.9,23.8,09.2,0000.0,0004.36,0002.50,0002.05
